sat.trackr.live / text

‹ back to catalog

STARLINK-36521

NORAD 67507 · 2026-012Q

PAYLOAD ACTIVE UNKNOWN

§ Identity

Operator
Country
US
Launch date
2026-01-18
Launch site
AFETR
Launch vehicle
Mass (kg)
RCS (m²)

Purposes: comms

External: N2YO · Heavens-Above · Gunter

§ Orbital elements

Epoch: 2026-09-19T09:52:47.234784Z

Period
94.27 min
Inclination
42.9990°
Eccentricity
0.0000940
Mean motion
15.27587598 rev/d
Perigee alt
482.4 km
Apogee alt
483.7 km
Semi-major
6,861.2 km
B*
2.9132e-4
RAAN
299.9619°
Arg perigee
273.5384°
Mean anomaly
86.5360°
Rev number
3,739

§ Raw data

STARLINK-365211 67507U 26012Q   26262.41165781  .00007765  00000+0  29132-3 0  99912 67507  42.9990 299.9619 0000940 273.5384  86.5360 15.27587598 37397

JSON: /api/v1/satellites/67507 · /tle

For live sub-satellite position, see the globe view (requires WebGL).

§ Visibility from observer

Set your observer location to see the next 7 days of passes ≥ 10°. The values pass through the URL so the page stays shareable.

No JS? Fill the form by hand. The geolocation button needs JavaScript.